Flag Weather past 2 weeks in Oelde, North Rhine-Westphalia, Germany

Now
57 °F

Sunny.


Feels Like: 55 °F
Forecast: 53 / 67 °F
Wind: 10 mph from South

Location: Paderborn / Lippstadt

Current Time: Oct 31, 2014 at 8:52:13 AM

Latest Report: Oct 31, 2014 at 8:20 AM


Visibility: 10 mi

Pressure: 30.24 "Hg

Humidity: 77%

Dew point: 50 °F

Location of OeldeLocation

Historic Weather in Oelde — Graph

°F

Oelde temperature yesterday

Maximum temperature yesterday: 57 °F (at 11:20 PM)
Minimum temperature yesterday: 48 °F (at 4:20 AM)
Average temperature yesterday: 53 °F

Past Weeks' High & Low Weather Summary

 TemperatureHumidityPressure
High72 °F (Oct 19, 1:20 PM)100% (Oct 16, 8:20 AM)30.30 "Hg (Oct 16, 8:20 AM)
Low32 °F (Oct 29, 4:20 AM)53% (Oct 18, 3:50 PM)29.47 "Hg (Oct 21, 5:20 PM)
Average53 °F81%30.05 "Hg
* Reported Oct 16 8:20 AM — Oct 31 7:20 AM, Oelde, Weather by CustomWeather, © 2014

Note: Actual official high and low records may vary slightly from our data, if they occured in-between our weather recording intervals... More about our weather records

Advertising

Oelde weather history for previous 24 hours

 ConditionsComfort  
Time TempWeatherWind HumidityBarometerVisibility
7:20 AM
Oct 31
57 °FSunny.10 mph77%30.21 "Hg10 mi
6:50 AM55 °FClear.12 mph82%30.21 "Hg10 mi
6:20 AM55 °FPassing clouds.9 mph82%30.21 "HgN/A
5:50 AM52 °FClear.5 mph94%30.21 "Hg10 mi
5:20 AM52 °FClear.5 mph88%30.21 "Hg10 mi
4:50 AM54 °FClear.6 mph88%30.21 "Hg10 mi
4:20 AM52 °FClear.7 mph94%30.21 "Hg10 mi
3:50 AM55 °FPassing clouds.3 mph88%30.21 "HgN/A
11:50 PM
Oct 30
57 °FClear.8 mph88%30.24 "Hg10 mi
11:20 PM57 °FClear.7 mph88%30.24 "Hg10 mi
10:50 PM55 °FClear.9 mph94%30.24 "Hg10 mi
10:20 PM55 °FClear.9 mph100%30.24 "Hg10 mi
9:50 PM55 °FLight rain. Clear.8 mph94%30.24 "HgN/A
9:20 PM55 °FClear.9 mph94%30.24 "Hg10 mi
8:50 PM55 °FClear.9 mph94%30.24 "Hg10 mi
8:20 PM55 °FClear.8 mph94%30.24 "Hg10 mi
7:50 PM55 °FClear.8 mph100%30.24 "Hg10 mi
7:20 PM55 °FClear.8 mph94%30.24 "Hg10 mi
6:50 PM55 °FPassing clouds.6 mph94%30.24 "HgN/A
6:20 PM55 °FPassing clouds.7 mph94%30.24 "HgN/A
5:50 PM55 °FPassing clouds.6 mph100%30.24 "HgN/A
5:20 PM55 °FPassing clouds.5 mph100%30.21 "HgN/A
4:50 PM55 °FPartly sunny.5 mph100%30.21 "Hg6 mi
4:20 PM55 °FPartly sunny.3 mph100%30.21 "Hg6 mi
3:50 PM55 °FBroken clouds.3 mph100%30.21 "Hg6 mi
3:20 PM55 °FPartly sunny.5 mph100%30.21 "HgN/A
2:50 PM55 °FPartly sunny.3 mph100%30.21 "HgN/A
2:20 PM55 °FPartly sunny.2 mph94%30.21 "HgN/A
1:50 PM55 °FPartly sunny.2 mph94%30.24 "HgN/A
1:20 PM55 °FScattered clouds.3 mph94%30.24 "HgN/A
12:50 PM55 °FScattered clouds.2 mph94%30.24 "HgN/A
12:20 PM55 °FScattered clouds.5 mph94%30.24 "Hg6 mi
11:50 AM54 °FScattered clouds.3 mph100%30.21 "Hg6 mi
11:20 AM54 °FScattered clouds.5 mph94%30.21 "Hg4 mi
10:50 AM52 °FBroken clouds.3 mph100%30.24 "Hg5 mi
10:20 AM52 °FBroken clouds.3 mph100%30.21 "Hg5 mi
9:50 AM50 °FBroken clouds.3 mph100%30.21 "Hg4 mi
9:20 AM50 °FPartly sunny.3 mph100%30.21 "Hg4 mi
8:50 AM48 °FFog.3 mph100%30.21 "Hg2 mi
8:20 AM48 °FFog.2 mph100%30.21 "Hg1 mi
Weather by CustomWeather, © 2014

See weather overviewHow to use our weather pages